Home > Weather > Ettlingen > Past weeks

Flag for Germany Weather for the Past 2 Weeks in Ettlingen, Baden-Württemberg, Germany

Now
48 °F

Scattered showers. Passing clouds.


Feels Like: 42 °F
Forecast: 41 / 48 °F
Wind: 17 mph from Southwest

Location: Karlsruhe - Baden Wurttemberg

Current Time: Feb 13, 2016 at 6:25:14 PM

Latest Report: Feb 13, 2016 at 5:50 PM


Visibility: N/A

Pressure: 29.09 "Hg

Humidity: 76%

Dew point: 41 °F

Location of EttlingenLocation

Historic Weather in Ettlingen — Graph

°F

Ettlingen Temperature Yesterday

Maximum temperature yesterday: 46 °F (at 1:20 PM)
Minimum temperature yesterday: 32 °F (at 7:20 AM)
Average temperature yesterday: 40 °F

High & Low Weather Summary for the Past Weeks

 TemperatureHumidityPressure
High59 °F (Feb 6, 1:50 PM)100% (Feb 4, 7:50 PM)30.42 "Hg (Feb 4, 7:50 PM)
Low30 °F (Feb 6, 5:50 AM)39% (Feb 6, 3:50 PM)29.12 "Hg (Feb 9, 3:50 PM)
Average45 °F78%29.88 "Hg
* Reported Jan 29 4:20 PM — Feb 13 4:50 PM, Ettlingen, Weather by CustomWeather, © 2016

Note: Actual official high and low records may vary slightly from our data, if they occured in-between our weather recording intervals... More about our weather records

Advertising

Ettlingen Weather History for the Previous 24 Hours

 ConditionsComfort  
Time TempWeatherWind HumidityBarometerVisibility
4:50 PM
Sat, Feb 13
46 °FDrizzle. Partly sunny.3 mph76%29.12 "Hg5 mi
4:20 PM46 °FLight rain. Broken clouds.2 mph76%29.12 "HgN/A
3:52 PM48 °FRain showers. Partly sunny.3 mph71%29.12 "HgN/A
3:20 PM46 °FLight rain. Partly sunny.2 mph76%29.15 "HgN/A
2:50 PM46 °FPartly sunny.3 mph71%29.15 "HgN/A
2:20 PM46 °FPartly sunny.13 mph71%29.18 "HgN/A
1:50 PM48 °FLight rain. Broken clouds.14 mph66%29.21 "HgN/A
1:20 PM48 °FDrizzle. Broken clouds.14 mph71%29.21 "HgN/A
12:50 PM46 °FBroken clouds.6 mph82%29.24 "HgN/A
12:20 PM46 °FScattered showers. Broken clouds.6 mph82%29.27 "HgN/A
11:51 AM45 °FSprinkles. Partly sunny.5 mph87%29.27 "HgN/A
11:20 AM43 °FBroken clouds.3 mph87%29.30 "HgN/A
10:54 AM43 °FPartly sunny.2 mph87%29.30 "HgN/A
10:20 AM41 °FPartly sunny.2 mph93%29.30 "HgN/A
9:56 AM41 °FPartly sunny.3 mph87%29.33 "HgN/A
9:20 AM41 °FPartly sunny.6 mph87%29.33 "HgN/A
8:50 AM39 °FPartly sunny.5 mph93%29.36 "HgN/A
8:20 AM39 °FPartly sunny.3 mph93%29.36 "Hg5 mi
7:50 AM37 °FPartly sunny.2 mph100%29.36 "Hg4 mi
7:20 AM37 °FPassing clouds.2 mph93%29.36 "Hg4 mi
6:50 AM37 °FPassing clouds.6 mph100%29.36 "Hg4 mi
6:20 AM37 °FSprinkles. Passing clouds.6 mph93%29.36 "Hg5 mi
5:50 AM37 °FPassing clouds.6 mph93%29.36 "Hg5 mi
5:20 AM37 °FPassing clouds.7 mph93%29.36 "Hg5 mi
4:50 AM39 °FPassing clouds.7 mph93%29.36 "Hg5 mi
4:20 AM39 °FPassing clouds.8 mph93%29.36 "Hg5 mi
11:50 PM
Fri, Feb 12
39 °FSprinkles. Passing clouds.2 mph87%29.33 "HgN/A
11:20 PM39 °FSprinkles. Passing clouds.3 mph87%29.33 "HgN/A
10:50 PM39 °FSprinkles. Passing clouds.5 mph87%29.33 "HgN/A
10:20 PM39 °FSprinkles. Passing clouds.3 mph87%29.33 "HgN/A
9:50 PM39 °FSprinkles. Passing clouds.5 mph87%29.33 "HgN/A
9:20 PM41 °FSprinkles. Passing clouds.6 mph76%29.33 "HgN/A
8:50 PM41 °FScattered showers. Partly cloudy.6 mph76%29.36 "HgN/A
8:20 PM41 °FSprinkles. Partly cloudy.5 mph81%29.36 "HgN/A
7:50 PM39 °FSprinkles. Partly cloudy.3 mph81%29.36 "HgN/A
7:20 PM41 °FScattered showers. Passing clouds.1 mph76%29.36 "HgN/A
6:50 PM41 °FPassing clouds.6 mph70%29.36 "HgN/A
6:20 PM43 °FPartly cloudy.6 mph66%29.36 "HgN/A
Weather by CustomWeather, © 2016

See weather overviewHow to use our weather pages